sat.trackr.live / text

‹ back to catalog

STARLINK-11501 [DTC]

NORAD 62268 · 2024-237B

PAYLOAD ACTIVE UNKNOWN

§ Identity

Operator
Country
US
Launch date
2024-12-08
Launch site
AFETR
Launch vehicle
Mass (kg)
RCS (m²)

Purposes: comms

External: N2YO · Heavens-Above · Gunter

§ Orbital elements

Epoch: 2026-09-21T14:10:13.309248Z

Period
91.67 min
Inclination
42.9997°
Eccentricity
0.0001303
Mean motion
15.70859394 rev/d
Perigee alt
355.6 km
Apogee alt
357.3 km
Semi-major
6,734.6 km
B*
1.0601e-3
RAAN
315.6741°
Arg perigee
243.4220°
Mean anomaly
116.6514°
Rev number
10,381

§ Raw data

STARLINK-11501 [DTC]1 62268U 24237B   26264.59043182  .00137971  00000+0  10601-2 0  99912 62268  42.9997 315.6741 0001303 243.4220 116.6514 15.70859394103815

JSON: /api/v1/satellites/62268 · /tle

For live sub-satellite position, see the globe view (requires WebGL).

§ Visibility from observer

Set your observer location to see the next 7 days of passes ≥ 10°. The values pass through the URL so the page stays shareable.

No JS? Fill the form by hand. The geolocation button needs JavaScript.